SCP
0 0 0 0 0 0 0 0 0 0 0 0 0 0 2 1 1 1 1 1 1 0 0 0 0 0 0 0 0 -0 -0 0 0 1 1 0 1 1 1 1 1 2 2 2
0 0 0 0 0 0 0 0 0 0 0 0 0 2 2 2 2 3 1 2 3 2 1 1 1 0 0 0 0 0 0 -0 0 1 1 1 1 1 1 2 2 2 2 2
0 0 0 0 0 0 0 0 0 0 0 0 2 2 1 1 1 0 0 0 0 1 2 3 2 1 0 0 1 1 1 1 1 2 1 1 1 1 2 2 2 2 3 3
0 0 0 0 0 0 0 0 0 0 1 1 1 0 0 0 -0 -0 0 0 0 0 0 0 1 2 2 1 1 1 1 1 2 1 1 2 1 1 1 1 1 1 1 1
0 0 0 0 0 0 0 0 1 1 1 0 -0 0 0 0 0 -0 0 0 0 0 0 0 0 1 2 2 2 1 1 1 1 2 1 3 3 3 2 2 1 1 1 1
0 0 0 0 2 2 1 0 1 1 1 0 0 0 0 0 0 -0 0 0 0 0 -0 0 0 0 1 1 2 1 3 4 5 2 6 3 2 3 3 1 1 1 1 1
0 0 0 0 0 1 1 1 1 1 1 1 1 2 0 0 0 -0 0 0 0 0 0 0 0 0 0 1 0 1 2 2 2 2 2 1 1 1 3 1 1 1 1 1
0 0 0 0 0 1 0 2 1 1 1 1 0 0 0 0 0 0 0 0 0 0 0 0 0 0 0 0 0 0 0 1 0 1 1 2 2 1 3 1 1 0 0 1
1 0 0 0 0 0 0 0 0 0 0 0 0 0 0 0 0 0 0 0 0 0 0 0 0 0 0 0 0 0 0 1 1 0 1 1 1 1 0 1 0 -1 0 0
1 0 0 0 0 0 0 1 0 0 0 0 0 0 0 0 0 0 0 0 0 0 0 0 0 0 0 0 0 0 1 1 1 1 1 1 0 1 1 0 0 0 0 0
0 0 0 0 0 0 0 0 0 0 0 0 0 0 0 0 0 0 0 0 0 0 0 0 0 0 0 0 0 0 0 0 0 0 0 1 1 0 0 0 0 0 0 0
1 0 0 0 0 0 0 0 0 0 0 0 0 0 0 0 0 0 0 0 0 0 0 0 0 0 0 0 0 0 0 0 0 0 0 0 0 0 0 0 0 0 0 0
0 0 0 0 0 0 0 0 0 0 0 0 0 0 0 0 0 0 0 0 0 0 0 0 0 0 0 0 0 0 0 0 0 0 0 0 0 0 0 0 -0 -0 -0 -0
0 0 -0 -0 0 0 0 0 0 0 0 0 0 0 0 0 0 0 0 0 0 0 0 0 0 0 0 0 0 0 0 -0 0 0 0 0 0 0 0 0 0 0 -0 -0
0 0 0 0 0 0 0 0 0 0 0 0 0 0 0 0 0 0 0 0 0 0 0 0 0 0 0 0 0 0 0 0 0 0 0 0 0 0 0 0 0 0 0 -0
0 0 0 0 0 0 0 0 0 0 0 0 0 0 0 0 0 0 0 0 0 0 0 0 0 0 0 0 0 0 0 0 0 0 0 0 0 0 0 0 0 0 0 0
0 0 0 0 0 0 0 0 0 0 0 0 0 0 0 0 0 0 0 0 0 0 0 0 0 0 0 0 0 0 0 0 0 0 0 0 0 0 0 0 0 0 -0 -0
0 -0 -0 0 0 0 0 0 0 0 0 0 0 0 0 0 0 0 0 0 0 0 0 0 0 0 0 0 0 0 0 0 0 0 0 0 0 0 0 0 0 0 0 0
-0 -0 -0 0 0 0 0 0 0 0 0 0 0 0 0 0 0 0 0 0 0 0 0 0 0 0 0 0 0 0 0 0 0 0 0 0 0 0 0 0 0 0 0 0
-0 -0 0 0 0 0 0 0 0 0 0 0 0 0 0 0 0 0 0 0 0 0 0 0 0 0 0 0 0 0 0 0 0 0 0 0 0 0 0 0 0 0 0 0
-0 -0 0 0 0 0 0 0 0 0 0 0 0 0 0 0 0 0 0 0 0 0 0 0 0 0 0 0 0 0 0 0 0 0 0 0 0 0 0 0 0 0 0 0
0 0 0 0 0 0 0 0 0 0 0 0 0 0 0 0 0 0 0 0 0 0 0 -0 0 0 0 0 0 0 0 0 0 0 0 0 0 0 0 0 0 0 0 0
0 0 0 0 0 0 0 0 0 0 0 0 0 0 0 0 0 0 0 0 0 0 0 0 0 -0 -0 0 0 0 0 0 0 0 0 0 0 0 0 0 0 0 0 0
0 0 0 0 0 0 0 0 0 0 0 0 0 0 0 0 0 0 0 0 0 0 0 0 0 0 0 0 0 0 0 0 0 0 0 0 0 0 0 0 0 0 0 0
0 0 0 0 0 0 0 0 0 0 0 0 0 0 0 0 0 -0 0 0 0 0 0 0 0 0 0 0 -0 0 -0 -0 -0 -0 0 0 0 0 0 0 0 0 0 0
0 0 0 0 -0 -0 -0 0 0 0 0 0 0 0 0 0 0 0 0 0 0 0 0 0 0 0 0 0 0 0 0 0 0 0 0 0 0 0 0 0 0 0 0 0
0 0 0 0 0 0 0 0 0 0 0 0 0 0 0 0 0 0 0 0 0 0 0 0 0 0 0 0 0 0 0 0 0 0 0 0 0 0 0 0 0 0 0 0
Wind_Speed_500mb
52 52 45 42 49 53 50 51 48 41 39 38 27 25 33 24 20 18 14 14 4 36 39 44 47 56 58 58 59 59 65 67 62 63 58 54 56 60 60 64 60 56 55 54
42 42 52 44 38 51 58 55 50 50 43 31 18 45 36 25 27 30 25 22 24 17 27 30 36 42 45 49 52 54 59 63 62 62 67 68 62 58 64 67 71 65 67 62
29 34 41 47 44 35 40 52 46 43 41 25 36 35 28 23 24 22 16 15 8 12 12 6 16 34 38 40 44 47 51 55 58 58 60 63 67 63 61 65 69 69 71 69
32 33 49 31 40 43 36 32 42 46 12 29 31 33 30 24 21 19 14 6 7 5 9 14 15 11 28 36 37 39 41 42 46 50 53 53 55 57 57 54 57 59 61 66
30 34 25 16 9 19 26 26 13 21 20 21 26 28 31 20 18 14 9 6 7 9 9 13 14 16 28 32 34 35 36 35 37 37 38 47 43 41 45 48 55 52 54 57
32 38 20 33 26 18 11 10 9 5 13 8 9 14 10 15 14 14 12 8 6 12 5 6 7 23 26 35 39 38 40 33 39 41 41 31 36 30 19 43 49 47 53 57
32 28 5 20 35 24 24 5 20 15 13 9 5 18 31 21 14 12 13 16 17 16 10 16 7 11 21 30 31 39 41 41 47 51 49 56 48 60 75 69 54 52 54 54
35 38 30 37 8 18 15 25 19 19 7 22 25 28 26 20 17 14 13 13 13 13 14 17 17 12 18 13 15 22 31 30 33 34 35 46 33 44 62 56 50 52 53 55
9 5 14 21 17 15 26 10 21 22 23 27 28 24 20 16 15 12 12 12 12 13 17 16 14 18 14 12 17 11 8 9 10 16 22 27 32 31 36 51 78 61 46 41
8 16 14 19 12 15 28 21 25 26 28 27 30 24 22 18 16 16 15 16 16 18 20 20 18 17 16 16 17 10 11 13 13 11 7 10 14 19 16 22 38 47 35 36
6 9 12 17 16 13 29 28 31 31 29 30 32 27 22 18 16 15 12 12 11 11 12 15 17 22 23 21 20 16 13 11 12 10 14 13 14 8 9 14 15 18 27 23
5 20 15 10 6 10 24 27 20 27 27 26 23 21 19 17 14 11 10 10 10 9 9 9 7 7 6 9 14 15 12 11 8 10 9 13 14 12 20 25 22 15 15 16
4 8 14 19 9 11 13 19 21 20 20 18 16 14 13 9 9 5 4 8 10 11 13 13 14 13 14 15 15 15 6 3 5 8 4 4 8 13 11 15 25 33 36 23
16 20 18 16 10 9 11 12 19 18 16 14 13 10 10 7 8 9 8 12 14 14 15 16 15 14 15 14 16 15 17 23 29 25 20 15 12 6 7 2 5 13 21 31
11 1 16 18 16 12 11 12 16 13 12 13 13 13 11 12 12 15 18 19 19 19 21 18 19 17 17 14 16 16 15 14 15 16 17 22 25 25 26 20 16 10 6 18
13 12 14 16 16 15 15 14 12 12 10 10 12 14 15 14 14 15 17 20 22 23 23 25 24 24 23 21 19 18 20 27 27 16 17 15 14 12 15 15 19 15 14 11
15 14 15 17 17 18 16 15 15 12 10 11 13 14 15 16 14 18 20 19 21 24 27 30 31 35 28 27 23 23 24 24 28 26 20 18 15 14 15 18 16 14 15 20
11 19 20 19 19 18 16 15 14 12 11 11 11 13 17 20 22 23 23 25 24 17 15 17 29 30 27 25 26 28 28 29 28 27 25 24 21 18 19 18 18 18 18 21
17 19 18 16 14 14 14 12 10 8 8 8 7 9 12 14 18 20 21 22 22 23 23 25 23 19 33 34 44 24 26 33 35 34 32 30 28 26 22 23 23 22 21 19
22 21 19 17 14 12 11 10 8 6 3 0 4 8 11 13 15 19 22 26 20 28 34 31 34 35 42 35 47 44 38 26 35 37 35 34 30 27 28 27 27 27 24 23
25 23 21 18 15 12 11 11 9 7 7 7 9 11 14 16 18 20 19 20 24 27 35 33 31 24 29 39 36 38 42 33 27 31 36 35 33 30 30 31 30 30 29 28
24 22 20 18 16 14 14 13 13 13 13 14 16 17 19 22 22 23 23 25 20 28 25 25 27 33 34 40 38 34 30 30 25 24 31 26 35 34 35 35 36 36 36 36
24 22 20 19 17 17 16 17 17 18 18 19 20 22 24 26 26 28 30 22 15 28 25 21 28 29 28 35 23 23 18 16 33 30 29 31 37 38 38 40 41 42 42 40
20 20 19 17 15 14 15 14 16 19 22 24 27 27 27 30 30 28 26 27 25 22 22 20 27 29 28 17 16 19 14 17 37 31 32 33 40 40 41 43 44 44 45 46
18 17 17 16 15 16 16 20 22 25 29 31 31 31 29 25 27 25 25 26 28 25 26 29 34 30 24 26 30 32 29 25 25 32 32 35 39 41 42 43 43 44 44 44
16 17 17 16 17 19 22 23 27 31 32 33 32 29 29 26 26 25 25 23 21 27 28 28 26 26 27 33 37 37 33 35 36 38 36 36 38 39 42 45 46 46 46 46
16 18 19 21 22 24 25 23 27 30 29 31 33 28 26 28 29 24 29 28 29 32 36 37 35 34 32 36 37 37 38 39 41 42 44 46 47 47 46 44 44 47 48 48
Wind_Direction_500mb
259 268 258 214 216 237 236 236 237 232 231 237 196 112 93 93 74 89 135 159 291 185 187 191 196 201 202 205 206 206 213 210 212 214 216 215 220 221 224 222 225 223 224 225
263 255 258 269 243 212 227 238 239 246 246 215 132 93 83 73 91 63 35 37 37 55 178 193 197 203 205 205 206 206 209 211 209 214 218 217 215 225 225 227 229 224 226 227
251 245 255 246 239 237 223 227 237 235 244 253 97 86 69 69 73 67 40 12 49 54 45 44 182 211 208 207 207 208 208 210 212 215 221 222 225 226 229 232 233 233 233 235
274 260 232 235 223 242 244 230 227 232 87 65 91 92 82 71 84 76 68 36 25 230 260 230 200 193 200 207 205 206 206 210 212 211 214 220 224 228 232 235 239 240 241 244
263 255 256 187 172 227 232 192 38 63 83 102 119 105 64 70 84 97 100 88 89 108 342 267 224 221 193 183 196 199 203 207 213 213 216 216 215 227 240 244 245 243 249 249
261 262 201 315 67 5 327 194 91 42 109 134 184 245 112 111 95 96 99 98 74 112 186 147 188 208 184 186 188 189 184 199 196 199 201 214 221 217 251 265 250 246 247 248
235 261 149 37 356 329 214 83 106 135 159 175 229 49 127 125 120 116 108 102 93 100 127 95 83 117 172 193 191 189 190 203 202 208 206 223 243 260 273 262 257 252 248 251
240 245 244 3 325 317 346 359 69 74 110 106 106 113 120 128 123 115 101 95 97 95 90 86 80 87 89 131 178 206 213 213 227 230 227 228 246 256 241 261 269 269 263 256
348 15 58 26 26 4 333 293 85 87 95 113 115 116 117 120 116 103 93 83 78 84 77 67 83 82 107 112 97 102 135 177 216 239 240 240 228 254 246 248 263 284 269 264
234 66 67 60 6 29 44 73 101 98 104 111 108 104 106 107 101 93 86 84 81 76 74 72 70 68 69 86 78 73 86 91 78 72 90 137 173 228 215 235 226 240 255 250
148 100 116 68 40 38 63 86 87 99 101 101 97 96 97 93 87 90 78 58 56 63 62 58 59 63 61 61 82 77 78 81 112 116 125 110 136 156 212 262 247 260 266 283
355 116 81 92 42 60 60 82 95 97 91 89 94 99 109 103 93 81 64 51 38 17 2 353 2 5 25 67 62 66 65 71 74 106 116 119 111 47 12 10 19 9 343 329
142 83 113 130 126 106 97 104 88 86 76 82 76 77 68 53 27 28 34 4 2 359 347 343 346 338 337 334 311 293 305 359 25 50 34 64 113 116 101 0 4 3 350 352
121 130 127 144 140 132 108 110 99 85 79 68 65 58 44 19 357 349 338 326 314 319 305 306 310 316 313 331 336 329 322 311 291 268 271 282 322 348 340 28 46 349 333 337
147 155 140 137 137 133 121 114 92 83 67 50 43 37 15 1 342 325 315 310 303 301 297 289 289 292 294 298 307 309 307 304 306 304 302 304 295 281 276 272 283 283 308 332
145 140 142 147 143 142 142 133 116 95 81 60 46 31 20 7 347 337 327 320 312 298 288 287 265 274 279 281 281 289 291 290 298 290 287 298 304 314 300 286 271 275 271 291
142 147 147 140 137 129 123 117 115 110 86 60 44 27 19 9 4 351 343 331 318 306 300 290 282 268 266 270 277 276 275 275 286 290 285 282 282 290 294 303 306 300 315 292
184 167 161 155 147 138 129 122 116 107 90 70 51 33 26 17 9 356 350 346 343 344 308 272 261 259 250 256 267 263 261 264 267 271 272 275 283 285 293 289 284 288 288 292
170 159 156 154 150 143 143 139 134 122 102 83 56 36 25 9 3 358 351 350 350 342 319 305 268 262 251 261 252 257 261 264 263 264 266 264 270 275 272 273 280 285 286 285
171 170 167 165 163 165 166 162 157 165 165 49 348 346 348 344 343 342 352 346 339 335 324 314 303 280 268 271 258 257 254 255 265 261 262 263 263 266 267 267 271 273 276 273
180 180 180 181 183 188 193 200 210 227 250 276 294 305 311 316 318 320 321 332 332 338 341 320 306 296 284 266 257 254 247 245 273 260 258 259 257 257 261 264 263 265 269 272
192 194 197 201 207 215 221 230 241 254 266 278 290 299 304 306 308 309 309 291 311 318 343 335 313 285 287 272 268 262 255 228 265 259 273 266 263 261 263 263 264 265 266 268
201 206 211 215 224 235 235 244 251 261 269 278 288 296 300 304 307 308 307 290 289 312 323 321 316 352 5 262 250 240 227 249 258 256 266 263 266 266 267 268 268 268 269 268
203 211 218 225 231 235 243 254 263 269 275 280 283 282 286 294 297 295 299 314 284 294 308 292 304 336 308 306 305 253 260 268 262 265 269 269 271 272 271 270 270 270 270 268
207 214 218 216 227 243 251 258 262 266 262 264 269 271 264 267 279 283 295 294 292 297 299 295 297 306 289 277 261 254 254 255 271 275 278 278 279 276 274 273 273 273 273 270
210 212 219 228 252 272 281 286 283 289 291 289 286 275 279 275 269 272 291 277 274 282 284 295 294 291 269 276 282 281 276 276 277 278 279 278 280 281 280 276 274 273 273 270
222 229 243 250 253 259 266 277 295 297 291 285 284 285 280 279 273 275 278 277 280 287 289 289 290 288 284 285 286 282 278 276 275 275 276 277 278 277 275 274 274 273 271 269
Wind_Speed_850mb
52 52 45 42 49 53 50 51 48 41 39 38 27 25 33 24 20 18 14 14 4 36 39 44 47 56 58 58 59 59 65 67 62 63 58 54 56 60 60 64 60 56 55 54
42 42 52 44 38 51 58 55 50 50 43 31 18 45 36 25 27 30 25 22 24 17 27 30 36 42 45 49 52 54 59 63 62 62 67 68 62 58 64 67 71 65 67 62
29 34 41 47 44 35 40 52 46 43 41 25 36 35 28 23 24 22 16 15 8 12 12 6 16 34 38 40 44 47 51 55 58 58 60 63 67 63 61 65 69 69 71 69
32 33 49 31 40 43 36 32 42 46 12 29 31 33 30 24 21 19 14 6 7 5 9 14 15 11 28 36 37 39 41 42 46 50 53 53 55 57 57 54 57 59 61 66
30 34 25 16 9 19 26 26 13 21 20 21 26 28 31 20 18 14 9 6 7 9 9 13 14 16 28 32 34 35 36 35 37 37 38 47 43 41 45 48 55 52 54 57
32 38 20 33 26 18 11 10 9 5 13 8 9 14 10 15 14 14 12 8 6 12 5 6 7 23 26 35 39 38 40 33 39 41 41 31 36 30 19 43 49 47 53 57
32 28 5 20 35 24 24 5 20 15 13 9 5 18 31 21 14 12 13 16 17 16 10 16 7 11 21 30 31 39 41 41 47 51 49 56 48 60 75 69 54 52 54 54
35 38 30 37 8 18 15 25 19 19 7 22 25 28 26 20 17 14 13 13 13 13 14 17 17 12 18 13 15 22 31 30 33 34 35 46 33 44 62 56 50 52 53 55
9 5 14 21 17 15 26 10 21 22 23 27 28 24 20 16 15 12 12 12 12 13 17 16 14 18 14 12 17 11 8 9 10 16 22 27 32 31 36 51 78 61 46 41
8 16 14 19 12 15 28 21 25 26 28 27 30 24 22 18 16 16 15 16 16 18 20 20 18 17 16 16 17 10 11 13 13 11 7 10 14 19 16 22 38 47 35 36
6 9 12 17 16 13 29 28 31 31 29 30 32 27 22 18 16 15 12 12 11 11 12 15 17 22 23 21 20 16 13 11 12 10 14 13 14 8 9 14 15 18 27 23
5 20 15 10 6 10 24 27 20 27 27 26 23 21 19 17 14 11 10 10 10 9 9 9 7 7 6 9 14 15 12 11 8 10 9 13 14 12 20 25 22 15 15 16
4 8 14 19 9 11 13 19 21 20 20 18 16 14 13 9 9 5 4 8 10 11 13 13 14 13 14 15 15 15 6 3 5 8 4 4 8 13 11 15 25 33 36 23
16 20 18 16 10 9 11 12 19 18 16 14 13 10 10 7 8 9 8 12 14 14 15 16 15 14 15 14 16 15 17 23 29 25 20 15 12 6 7 2 5 13 21 31
11 1 16 18 16 12 11 12 16 13 12 13 13 13 11 12 12 15 18 19 19 19 21 18 19 17 17 14 16 16 15 14 15 16 17 22 25 25 26 20 16 10 6 18
13 12 14 16 16 15 15 14 12 12 10 10 12 14 15 14 14 15 17 20 22 23 23 25 24 24 23 21 19 18 20 27 27 16 17 15 14 12 15 15 19 15 14 11
15 14 15 17 17 18 16 15 15 12 10 11 13 14 15 16 14 18 20 19 21 24 27 30 31 35 28 27 23 23 24 24 28 26 20 18 15 14 15 18 16 14 15 20
11 19 20 19 19 18 16 15 14 12 11 11 11 13 17 20 22 23 23 25 24 17 15 17 29 30 27 25 26 28 28 29 28 27 25 24 21 18 19 18 18 18 18 21
17 19 18 16 14 14 14 12 10 8 8 8 7 9 12 14 18 20 21 22 22 23 23 25 23 19 33 34 44 24 26 33 35 34 32 30 28 26 22 23 23 22 21 19
22 21 19 17 14 12 11 10 8 6 3 0 4 8 11 13 15 19 22 26 20 28 34 31 34 35 42 35 47 44 38 26 35 37 35 34 30 27 28 27 27 27 24 23
25 23 21 18 15 12 11 11 9 7 7 7 9 11 14 16 18 20 19 20 24 27 35 33 31 24 29 39 36 38 42 33 27 31 36 35 33 30 30 31 30 30 29 28
24 22 20 18 16 14 14 13 13 13 13 14 16 17 19 22 22 23 23 25 20 28 25 25 27 33 34 40 38 34 30 30 25 24 31 26 35 34 35 35 36 36 36 36
24 22 20 19 17 17 16 17 17 18 18 19 20 22 24 26 26 28 30 22 15 28 25 21 28 29 28 35 23 23 18 16 33 30 29 31 37 38 38 40 41 42 42 40
20 20 19 17 15 14 15 14 16 19 22 24 27 27 27 30 30 28 26 27 25 22 22 20 27 29 28 17 16 19 14 17 37 31 32 33 40 40 41 43 44 44 45 46
18 17 17 16 15 16 16 20 22 25 29 31 31 31 29 25 27 25 25 26 28 25 26 29 34 30 24 26 30 32 29 25 25 32 32 35 39 41 42 43 43 44 44 44
16 17 17 16 17 19 22 23 27 31 32 33 32 29 29 26 26 25 25 23 21 27 28 28 26 26 27 33 37 37 33 35 36 38 36 36 38 39 42 45 46 46 46 46
16 18 19 21 22 24 25 23 27 30 29 31 33 28 26 28 29 24 29 28 29 32 36 37 35 34 32 36 37 37 38 39 41 42 44 46 47 47 46 44 44 47 48 48
Wind_Direction_850mb
259 268 258 214 216 237 236 236 237 232 231 237 196 112 93 93 74 89 135 159 291 185 187 191 196 201 202 205 206 206 213 210 212 214 216 215 220 221 224 222 225 223 224 225
263 255 258 269 243 212 227 238 239 246 246 215 132 93 83 73 91 63 35 37 37 55 178 193 197 203 205 205 206 206 209 211 209 214 218 217 215 225 225 227 229 224 226 227
251 245 255 246 239 237 223 227 237 235 244 253 97 86 69 69 73 67 40 12 49 54 45 44 182 211 208 207 207 208 208 210 212 215 221 222 225 226 229 232 233 233 233 235
274 260 232 235 223 242 244 230 227 232 87 65 91 92 82 71 84 76 68 36 25 230 260 230 200 193 200 207 205 206 206 210 212 211 214 220 224 228 232 235 239 240 241 244
263 255 256 187 172 227 232 192 38 63 83 102 119 105 64 70 84 97 100 88 89 108 342 267 224 221 193 183 196 199 203 207 213 213 216 216 215 227 240 244 245 243 249 249
261 262 201 315 67 5 327 194 91 42 109 134 184 245 112 111 95 96 99 98 74 112 186 147 188 208 184 186 188 189 184 199 196 199 201 214 221 217 251 265 250 246 247 248
235 261 149 37 356 329 214 83 106 135 159 175 229 49 127 125 120 116 108 102 93 100 127 95 83 117 172 193 191 189 190 203 202 208 206 223 243 260 273 262 257 252 248 251
240 245 244 3 325 317 346 359 69 74 110 106 106 113 120 128 123 115 101 95 97 95 90 86 80 87 89 131 178 206 213 213 227 230 227 228 246 256 241 261 269 269 263 256
348 15 58 26 26 4 333 293 85 87 95 113 115 116 117 120 116 103 93 83 78 84 77 67 83 82 107 112 97 102 135 177 216 239 240 240 228 254 246 248 263 284 269 264
234 66 67 60 6 29 44 73 101 98 104 111 108 104 106 107 101 93 86 84 81 76 74 72 70 68 69 86 78 73 86 91 78 72 90 137 173 228 215 235 226 240 255 250
148 100 116 68 40 38 63 86 87 99 101 101 97 96 97 93 87 90 78 58 56 63 62 58 59 63 61 61 82 77 78 81 112 116 125 110 136 156 212 262 247 260 266 283
355 116 81 92 42 60 60 82 95 97 91 89 94 99 109 103 93 81 64 51 38 17 2 353 2 5 25 67 62 66 65 71 74 106 116 119 111 47 12 10 19 9 343 329
142 83 113 130 126 106 97 104 88 86 76 82 76 77 68 53 27 28 34 4 2 359 347 343 346 338 337 334 311 293 305 359 25 50 34 64 113 116 101 0 4 3 350 352
121 130 127 144 140 132 108 110 99 85 79 68 65 58 44 19 357 349 338 326 314 319 305 306 310 316 313 331 336 329 322 311 291 268 271 282 322 348 340 28 46 349 333 337
147 155 140 137 137 133 121 114 92 83 67 50 43 37 15 1 342 325 315 310 303 301 297 289 289 292 294 298 307 309 307 304 306 304 302 304 295 281 276 272 283 283 308 332
145 140 142 147 143 142 142 133 116 95 81 60 46 31 20 7 347 337 327 320 312 298 288 287 265 274 279 281 281 289 291 290 298 290 287 298 304 314 300 286 271 275 271 291
142 147 147 140 137 129 123 117 115 110 86 60 44 27 19 9 4 351 343 331 318 306 300 290 282 268 266 270 277 276 275 275 286 290 285 282 282 290 294 303 306 300 315 292
184 167 161 155 147 138 129 122 116 107 90 70 51 33 26 17 9 356 350 346 343 344 308 272 261 259 250 256 267 263 261 264 267 271 272 275 283 285 293 289 284 288 288 292
170 159 156 154 150 143 143 139 134 122 102 83 56 36 25 9 3 358 351 350 350 342 319 305 268 262 251 261 252 257 261 264 263 264 266 264 270 275 272 273 280 285 286 285
171 170 167 165 163 165 166 162 157 165 165 49 348 346 348 344 343 342 352 346 339 335 324 314 303 280 268 271 258 257 254 255 265 261 262 263 263 266 267 267 271 273 276 273
180 180 180 181 183 188 193 200 210 227 250 276 294 305 311 316 318 320 321 332 332 338 341 320 306 296 284 266 257 254 247 245 273 260 258 259 257 257 261 264 263 265 269 272
192 194 197 201 207 215 221 230 241 254 266 278 290 299 304 306 308 309 309 291 311 318 343 335 313 285 287 272 268 262 255 228 265 259 273 266 263 261 263 263 264 265 266 268
201 206 211 215 224 235 235 244 251 261 269 278 288 296 300 304 307 308 307 290 289 312 323 321 316 352 5 262 250 240 227 249 258 256 266 263 266 266 267 268 268 268 269 268
203 211 218 225 231 235 243 254 263 269 275 280 283 282 286 294 297 295 299 314 284 294 308 292 304 336 308 306 305 253 260 268 262 265 269 269 271 272 271 270 270 270 270 268
207 214 218 216 227 243 251 258 262 266 262 264 269 271 264 267 279 283 295 294 292 297 299 295 297 306 289 277 261 254 254 255 271 275 278 278 279 276 274 273 273 273 273 270
210 212 219 228 252 272 281 286 283 289 291 289 286 275 279 275 269 272 291 277 274 282 284 295 294 291 269 276 282 281 276 276 277 278 279 278 280 281 280 276 274 273 273 270
222 229 243 250 253 259 266 277 295 297 291 285 284 285 280 279 273 275 278 277 280 287 289 289 290 288 284 285 286 282 278 276 275 275 276 277 278 277 275 274 274 273 271 269